Location: *
(47.8307°S, 178.3954°E)
Time: 23:28:31
(UTC+00:00)

Cosmos 2278 Rocket - Pass Details

Date: 12 August 2024
Orbit: 841 x 844 km, 71.0° (Epoch: 19 September)

Event Time Altitude Azimuth Distance (km) Brightness Sun altitude
Exits shadow 17:11:02 14° 333° (NNW) 2,175 4.1 -20.9°
Maximum altitude 17:15:56 87° 244° (WSW) 864 2.1 -20.1°
Drops below altitude 10° 17:21:43 10° 153° (SSE) 2,503 5.0 -19.1°
Sets 17:24:12 0° 152° (SSE) 3,444 5.7 -18.7°
